CW9676 Weather Reports


time (UTC)temp
C
wind
direction
speed
KPH
gust
KPH
rain 1hr
cm
rain 24hr
cm
rain mn
cm
humidity
%
barometer
mb
20260901135627 18 211 4.8 9.7 0.00 0.00 0.00 66 1008.3
20260901131152 17 213 6.4 16.1 0.00 0.00 0.00 68 1008.1
20260901130128 17 210 6.4 16.1 0.00 0.00 0.00 68 1007.9
20260901125100 17 224 4.8 8.0 0.00 0.00 0.00 68 1007.8
20260901124055 17 217 6.4 11.3 0.00 0.00 0.00 68 1007.8
20260901123059 17 238 6.4 11.3 0.00 0.00 0.00 70 1007.6
20260901122110 17 243 6.4 9.7 0.00 0.00 0.00 70 1007.6
20260901121126 17 231 4.8 9.7 0.00 0.00 0.00 70 1007.6
20260901120054 17 230 4.8 9.7 0.00 0.00 0.00 70 1007.6
20260901115112 17 211 6.4 9.7 0.00 0.00 0.00 70 1007.6
20260901114056 17 227 4.8 8.0 0.00 0.00 0.00 69 1007.5
20260901113036 17 196 3.2 8.0 0.00 0.00 0.00 68 1007.7
20260901110858 18 179 3.2 4.8 0.00 0.00 0.00 61 1007.5
20260901105842 18 248 1.6 3.2 0.00 0.00 0.00 61 1007.4
20260901104823 17 248 0.0 3.2 0.00 0.00 0.00 64 1007.3
20260901103750 17 248 1.6 3.2 0.00 0.00 0.00 65 1007.3
20260901102750 18 248 1.6 3.2 0.00 0.00 0.00 66 1007.4
20260901101733 18 214 1.6 3.2 0.00 0.00 0.00 66 1007.5
20260901100736 18 206 0.0 3.2 0.00 0.00 0.00 65 1007.5
20260901095757 18 175 1.6 3.2 0.00 0.00 0.00 65 1007.4
20260901094733 18 177 1.6 4.8 0.00 0.00 0.00 63 1007.6
20260901093704 18 215 1.6 4.8 0.00 0.00 0.00 61 1007.6
20260901092653 19 223 1.6 3.2 0.00 0.00 0.00 59 1007.6
20260901085416 19 240 6.4 11.3 0.00 0.00 0.00 60 1007.6
20260901084410 19 231 6.4 9.7 0.00 0.00 0.00 61 1007.5
20260901083342 19 219 4.8 8.0 0.00 0.00 0.00 62 1007.9
20260901082348 19 203 3.2 6.4 0.00 0.00 0.00 62 1008.1
20260901081339 19 211 3.2 8.0 0.00 0.00 0.00 62 1008.2
20260901075153 19 225 3.2 9.7 0.00 0.00 0.00 63 1008.2
20260901074134 19 237 4.8 9.7 0.00 0.00 0.00 63 1008.2
20260901073100 19 244 6.4 9.7 0.00 0.00 0.00 63 1008.2
20260901070959 18 234 4.8 9.7 0.00 0.00 0.00 64 1008.2
20260901065924 19 233 3.2 8.0 0.00 0.00 0.00 63 1008.3
20260901063819 19 130 0.0 4.8 0.00 0.00 0.00 63 1008.6
20260901062755 19 143 0.0 0.0 0.00 0.00 0.00 63 1008.7
20260901061725 19 165 4.8 9.7 0.00 0.00 0.00 62 1008.5
20260901060714 19 200 4.8 9.7 0.00 0.00 0.00 63 1008.2
20260901055735 19 202 3.2 11.3 0.00 0.00 0.00 63 1008.0
20260901054723 19 199 3.2 11.3 0.00 0.00 0.00 63 1008.3
20260901053653 19 180 3.2 8.0 0.00 0.00 0.00 63 1008.3
20260901051526 19 230 4.8 12.9 0.00 0.00 0.00 63 1008.5
20260901050551 19 151 6.4 16.1 0.00 0.00 0.00 62 1008.6
20260901045538 19 184 8.0 22.5 0.00 0.00 0.00 61 1008.8
20260901044556 19 165 12.9 22.5 0.00 0.00 0.00 61 1008.7
20260901042409 20 133 9.7 17.7 0.00 0.00 0.00 60 1008.6
20260901041427 20 140 3.2 6.4 0.00 0.00 0.00 60 1008.9
20260901040424 20 113 3.2 14.5 0.00 0.00 0.00 60 1008.6
20260901033222 21 186 8.0 17.7 0.00 0.00 0.00 50 1006.9
20260901032207 22 168 6.4 17.7 0.00 0.00 0.00 49 1006.9
20260901031215 22 186 4.8 14.5 0.00 0.00 0.00 48 1006.7
20260901030147 22 182 4.8 14.5 0.00 0.00 0.00 47 1006.2
20260901025127 22 233 8.0 14.5 0.00 0.00 0.00 47 1005.7
20260901024129 22 237 6.4 14.5 0.00 0.00 0.00 47 1005.6
20260901023129 22 210 8.0 16.1 0.00 0.00 0.00 47 1005.3
20260901022109 22 213 9.7 20.9 0.00 0.00 0.00 48 1005.2
20260901021037 22 242 12.9 20.9 0.00 0.00 0.00 48 1005.0
20260901020007 22 224 11.3 27.4 0.00 0.00 0.00 49 1004.8
20260901014935 22 200 14.5 27.4 0.00 0.00 0.00 49 1004.6
20260901013955 22 239 14.5 24.1 0.00 0.00 0.00 50 1004.4
20260901010634 23 214 11.3 25.7 0.00 0.00 0.00 49 1004.2
20260901005653 23 166 14.5 30.6 0.00 0.00 0.00 49 1004.5
20260901004649 23 183 16.1 30.6 0.00 0.00 0.00 48 1004.5
20260901003705 23 177 16.1 29.0 0.00 0.00 0.00 47 1004.5
20260901002647 24 221 14.5 29.0 0.00 0.00 0.00 46 1004.4
20260901001651 24 215 12.9 25.7 0.00 0.00 0.00 46 1004.4
20260901000630 25 175 14.5 30.6 0.00 0.00 0.00 45 1004.4
20260831234519 25 157 17.7 29.0 0.00 0.00 0.00 46 1004.4
20260831233459 26 163 16.1 33.8 0.00 0.00 0.00 44 1004.5
20260831232436 26 178 22.5 33.8 0.00 0.00 0.00 42 1004.4
20260831231440 27 164 19.3 35.4 0.00 0.00 0.00 41 1004.1
20260831230453 26 204 22.5 38.6 0.00 0.00 0.00 42 1004.0
20260831225446 27 163 20.9 40.2 0.00 0.00 0.00 40 1003.8
20260831224421 27 132 22.5 40.2 0.00 0.00 0.00 40 1004.0
20260831222306 28 100 22.5 35.4 0.00 0.00 0.00 37 1004.2
20260831220116 29 91 20.9 35.4 0.00 0.00 0.00 35 1004.4
20260831213958 29 72 20.9 35.4 0.00 0.00 0.00 36 1004.4
20260831213022 30 63 20.9 35.4 0.00 0.00 0.00 35 1004.9
20260831210834 28 90 14.5 32.2 0.00 0.00 0.00 35 1005.2
20260831204651 30 98 8.0 27.4 0.00 0.00 0.00 34 1005.4
20260831203658 29 80 9.7 22.5 0.00 0.00 0.00 33 1005.7
20260831202654 28 58 8.0 22.5 0.00 0.00 0.00 35 1006.0
20260831201622 28 55 11.3 22.5 0.00 0.00 0.00 34 1006.0
20260831200624 30 94 9.7 20.9 0.00 0.00 0.00 32 1006.0
20260831195629 29 150 9.7 20.9 0.00 0.00 0.00 34 1006.2
20260831194625 29 79 12.9 22.5 0.00 0.00 0.00 32 1006.3
20260831193624 28 138 9.7 22.5 0.00 0.00 0.00 34 1006.3
20260831192643 28 155 11.3 19.3 0.00 0.00 0.00 33 1006.4
20260831191653 28 59 14.5 25.7 0.00 0.00 0.00 35 1006.6
20260831190624 28 123 14.5 30.6 0.00 0.00 0.00 36 1006.6
20260831185601 27 107 16.1 30.6 0.00 0.00 0.00 37 1006.6
20260831184621 27 121 14.5 30.6 0.00 0.00 0.00 37 1006.8
20260831183633 27 137 14.5 30.6 0.00 0.00 0.00 38 1007.0
20260831182626 27 115 14.5 27.4 0.00 0.00 0.00 37 1007.0
20260831181606 26 115 14.5 27.4 0.00 0.00 0.00 39 1007.1
20260831180603 26 80 14.5 25.7 0.00 0.00 0.00 40 1007.2
20260831175604 26 84 14.5 25.7 0.00 0.00 0.00 39 1007.3
20260831173525 25 44 14.5 30.6 0.00 0.00 0.00 43 1007.6
20260831172510 25 85 16.1 30.6 0.00 0.00 0.00 42 1007.5
20260831171521 25 117 16.1 30.6 0.00 0.00 0.00 43 1007.6
20260831170531 24 140 17.7 30.6 0.00 0.00 0.00 43 1007.6
20260831165515 24 97 16.1 29.0 0.00 0.00 0.00 47 1007.6
20260831164530 24 99 17.7 29.0 0.00 0.00 0.00 46 1007.5
20260831163520 24 83 16.1 27.4 0.00 0.00 0.00 48 1007.5
20260831161403 24 119 16.1 24.1 0.00 0.00 0.00 48 1007.5
20260831160346 24 125 12.9 25.7 0.00 0.00 0.00 48 1007.4
20260831155330 23 123 16.1 25.7 0.00 0.00 0.00 47 1007.2
20260831154345 23 95 16.1 25.7 0.00 0.00 0.00 48 1007.1
20260831153317 22 150 17.7 30.6 0.00 0.00 0.00 53 1006.9
20260831151116 22 117 16.1 29.0 0.00 0.00 0.00 60 1006.9
20260831150109 22 117 14.5 27.4 0.00 0.00 0.00 63 1006.9
20260831145044 21 91 14.5 25.7 0.00 0.00 0.00 63 1006.7
20260831144030 21 92 14.5 25.7 0.00 0.00 0.00 63 1006.6
20260831143034 21 123 12.9 24.1 0.00 0.00 0.00 64 1006.4
20260831142028 21 113 11.3 24.1 0.00 0.00 0.00 64 1006.2
20260831141047 20 115 14.5 24.1 0.00 0.00 0.00 67 1006.2
20260831140014 19 127 16.1 27.4 0.00 0.00 0.00 70 1005.9